TimeCEST,TemperatureF,Dew PointF,Humidity,Sea Level PressureIn,VisibilityMPH,Wind Direction,Wind SpeedMPH,Gust SpeedMPH,PrecipitationIn,Events,Conditions,WindDirDegrees,DateUTC
12:00 AM,37.4,33.8,87,30.15,-9999.0,South,8.1,-,N/A,,Clear,180,2011-10-17 22:00:00
12:30 AM,37.4,33.8,87,30.15,-9999.0,South,8.1,-,N/A,,Clear,180,2011-10-17 22:30:00
1:00 AM,37.4,33.8,87,30.15,-9999.0,SSW,8.1,-,N/A,,Clear,200,2011-10-17 23:00:00
1:30 AM,37.4,33.8,87,30.12,-9999.0,South,8.1,-,N/A,,Clear,190,2011-10-17 23:30:00
2:00 AM,36,34,87,30.19,7,South,8.9,,,,,190,2011-10-18 00:00:00
2:00 AM,35.6,33.8,93,30.12,-9999.0,South,8.1,-,N/A,,Clear,190,2011-10-18 00:00:00
2:30 AM,37.4,33.8,87,30.12,-9999.0,South,8.1,-,N/A,,Clear,190,2011-10-18 00:30:00
2:46 AM,37.4,35.6,93,30.12,5.0,SSW,9.2,-,N/A,,Unknown,200,2011-10-18 00:46:00
3:00 AM,37.4,35.6,93,30.12,5.0,SSW,11.5,-,N/A,,Unknown,200,2011-10-18 01:00:00
3:30 AM,37.4,35.6,93,30.09,5.0,South,12.7,-,N/A,,Partly Cloudy,190,2011-10-18 01:30:00
4:00 AM,39.2,37.4,93,30.09,5.0,South,9.2,-,N/A,,Mostly Cloudy,180,2011-10-18 02:00:00
4:30 AM,37.4,35.6,93,30.09,5.0,South,9.2,-,N/A,,Scattered Clouds,170,2011-10-18 02:30:00
5:00 AM,39.2,37.4,93,30.09,5.0,South,10.4,-,N/A,,Mostly Cloudy,190,2011-10-18 03:00:00
5:30 AM,41.0,37.4,87,30.06,5.0,South,10.4,-,N/A,,Mostly Cloudy,190,2011-10-18 03:30:00
6:00 AM,41.0,39.2,93,30.06,5.0,South,9.2,-,N/A,,Mostly Cloudy,190,2011-10-18 04:00:00
6:30 AM,41.0,37.4,87,30.06,5.0,South,5.8,-,N/A,,Mostly Cloudy,170,2011-10-18 04:30:00
7:00 AM,39.2,37.4,93,30.06,4.3,South,4.6,-,N/A,,Scattered Clouds,170,2011-10-18 05:00:00
7:30 AM,39.2,35.6,87,30.04,3.7,SE,8.1,-,N/A,,Partly Cloudy,140,2011-10-18 05:30:00
8:00 AM,38,36,90,30.10,4,SSE,6.7,,,,Mist,160,2011-10-18 06:00:00
8:00 AM,39.2,35.6,87,30.04,3.7,SSE,8.1,-,N/A,,Unknown,150,2011-10-18 06:00:00
8:30 AM,39.2,37.4,93,30.04,3.7,SSE,9.2,-,N/A,,Unknown,150,2011-10-18 06:30:00
9:00 AM,41.0,37.4,87,30.04,4.3,SSE,9.2,-,N/A,,Unknown,150,2011-10-18 07:00:00
9:30 AM,42.8,39.2,87,30.04,5.0,SSE,8.1,-,N/A,,Unknown,160,2011-10-18 07:30:00
10:00 AM,44.6,41.0,87,30.01,5.6,South,9.2,-,N/A,,Unknown,170,2011-10-18 08:00:00
10:30 AM,48.2,42.8,82,30.01,-9999.0,South,5.8,-,N/A,,Clear,180,2011-10-18 08:30:00
11:00 AM,51.8,44.6,76,30.01,-9999.0,SSW,6.9,-,N/A,,Clear,210,2011-10-18 09:00:00
11:30 AM,51.8,44.6,76,30.01,-9999.0,SSW,11.5,-,N/A,,Clear,210,2011-10-18 09:30:00
12:00 PM,55.4,44.6,67,29.98,-9999.0,SSW,10.4,-,N/A,,Clear,200,2011-10-18 10:00:00
12:30 PM,55.4,44.6,67,29.98,-9999.0,SSW,12.7,-,N/A,,Clear,210,2011-10-18 10:30:00
1:00 PM,57.2,44.6,63,29.98,-9999.0,SSW,12.7,-,N/A,,Clear,200,2011-10-18 11:00:00
1:30 PM,59.0,44.6,59,29.95,-9999.0,SSW,12.7,-,N/A,,Clear,200,2011-10-18 11:30:00
2:00 PM,60.8,44.6,55,29.95,-9999.0,SSW,12.7,-,N/A,,Clear,200,2011-10-18 12:00:00
2:30 PM,62.6,44.6,52,29.92,-9999.0,SSW,11.5,-,N/A,,Clear,200,2011-10-18 12:30:00
3:00 PM,62.6,42.8,48,29.92,-9999.0,SSW,12.7,-,N/A,,Clear,200,2011-10-18 13:00:00
3:30 PM,62.6,42.8,48,29.92,-9999.0,SSW,13.8,-,N/A,,Clear,210,2011-10-18 13:30:00
4:00 PM,62.6,41.0,45,29.89,-9999.0,SSW,12.7,-,N/A,,Clear,200,2011-10-18 14:00:00
4:30 PM,62.6,41.0,45,29.89,-9999.0,SSW,10.4,-,N/A,,Clear,200,2011-10-18 14:30:00
5:00 PM,60.8,41.0,48,29.89,-9999.0,South,11.5,-,N/A,,Clear,190,2011-10-18 15:00:00
5:30 PM,59.0,42.8,55,29.89,-9999.0,South,10.4,-,N/A,,Clear,190,2011-10-18 15:30:00
6:00 PM,55.4,44.6,67,29.89,-9999.0,South,11.5,-,N/A,,Clear,190,2011-10-18 16:00:00
6:30 PM,55.4,44.6,67,29.86,-9999.0,South,15.0,-,N/A,,Clear,190,2011-10-18 16:30:00
7:00 PM,53.6,44.6,72,29.86,-9999.0,South,11.5,-,N/A,,Clear,180,2011-10-18 17:00:00
7:30 PM,53.6,44.6,72,29.86,-9999.0,South,11.5,-,N/A,,Clear,180,2011-10-18 17:30:00
8:00 PM,54,44,60,29.86,22,SSW,8.9,,,,Mostly Cloudy,200,2011-10-18 18:00:00
8:00 PM,55.4,44.6,67,29.86,-9999.0,South,11.5,-,N/A,,Clear,180,2011-10-18 18:00:00
8:30 PM,53.6,44.6,72,29.86,-9999.0,South,9.2,-,N/A,,Clear,180,2011-10-18 18:30:00
9:00 PM,53.6,44.6,72,29.86,-9999.0,South,11.5,-,N/A,,Clear,190,2011-10-18 19:00:00
9:30 PM,51.8,44.6,76,29.83,-9999.0,SSW,9.2,-,N/A,,Clear,200,2011-10-18 19:30:00
10:00 PM,53.6,42.8,67,29.83,-9999.0,SSW,9.2,-,N/A,,Clear,200,2011-10-18 20:00:00
10:30 PM,53.6,42.8,67,29.86,-9999.0,West,5.8,-,N/A,,Clear,260,2011-10-18 20:30:00
11:00 PM,53.6,42.8,67,29.86,-9999.0,SW,9.2,-,N/A,,Clear,230,2011-10-18 21:00:00
11:30 PM,53.6,42.8,67,29.86,-9999.0,SW,8.1,-,N/A,,Clear,230,2011-10-18 21:30:00